Location: Sternwarte_Laufen
(47.9344°N, 12.9346°E)
Time: 23:24:30
(UTC+02:00)

ISS - Pass Details

Date: 20 July 2018
Orbit: 402 x 408 km, 51.6° (Epoch: 16 July)

Event Time Altitude Azimuth Distance (km) Brightness Sun altitude
Rises 00:37:15 0° 265° (W) 2,322 0.1 -20.8°
Reaches altitude 10° 00:39:22 10° 271° (W) 1,464 -0.9 -20.9°
Maximum altitude 00:42:34 49° 348° (NNW) 532 -2.9 -21.0°
Drops below altitude 10° 00:45:47 10° 65° (ENE) 1,470 -0.8 -21.0°
Sets 00:47:55 0° 71° (ENE) 2,332 0.2 -21.1°
